Weather History for Pampa / Mesa Vista, TX

Change the Weather History Date:

Saturday, November 24, 2012

  Actual Average (KBGD) Record (KBGD)
Temperature  
Mean Temperature 49 °F 45 °F  
Max Temperature 68 °F 57 °F 80 °F (1981)
Min Temperature 30 °F 33 °F 11 °F (1950)
Degree Days  
Heating Degree Days 16 20  
Month to date heating degree days 367  
Since 1 July heating degree days 588  
Cooling Degree Days 0 0  
Month to date cooling degree days 0  
Year to date cooling degree days 1835  
Moisture  
Dew Point 18 °F    
Average Humidity 34    
Maximum Humidity 52    
Minimum Humidity 17    
Precipitation  
Precipitation 0.00 in 0.03 in 0.61 in (1992)
Month to date precipitation 0.74  
Year to date precipitation 20.85  
Snow  
Snow 0.00 in - 7.00 in (1992)
Month to date snowfall  
Since 1 July snowfall  
Since 1 September snowfall  
Snow Depth -    
Sea Level Pressure  
Sea Level Pressure 30.12 in    
Wind  
Wind Speed 11 mph (SW)    
Max Wind Speed 29 mph    
Max Gust Speed 36 mph    
Visibility 10 miles    
Events      
T = Trace of Precipitation, MM = Missing Value Source: NWS Daily Summary

Daily Weather History Graph

Daily Weather History Graph

Search for Another Location

Airport:

Trip Planner

Search our weather history database for the weather conditions in past years. The results will help you decide how hot, cold, wet, or windy it might be!

Date:

Astronomy

Nov. 24, 2012 Rise Set
Actual Time 7:29 AM CST 5:31 PM CST
Civil Twilight 7:02 AM CST 5:59 PM CST
Nautical Twilight 6:30 AM CST 6:31 PM CST
Astronomical Twilight 5:59 AM CST 7:01 PM CST
Moon 3:12 PM CST (11/24) 3:54 AM CST (11/24)
Length of Visible Light 10h 57m
Length of Day
10h 02m
Waxing Gibbous, 87% of the Moon is Illuminated
Nov 24
Waxing Gibbous
Nov 28
Full
Dec 6
Last Quarter
Dec 13
New
Dec 19
First Quarter

Hourly Weather History & Observations

Time (CST) Temp. Windchill Dew Point Humidity Pressure Visibility Wind Dir Wind Speed Gust Speed Precip Events Conditions
12:15 AM 33.8 °F 29.6 °F 12.2 °F 41% 30.38 in 10.0 mi SW 4.6 mph - N/A   Clear
12:35 AM 37.4 °F 31.4 °F 14.0 °F 38% 30.37 in 10.0 mi SSW 8.1 mph - N/A   Clear
12:55 AM 37.4 °F 32.8 °F 12.2 °F 36% 30.38 in 10.0 mi NW 5.8 mph - N/A   Clear
1:15 AM 32.0 °F 27.5 °F 12.2 °F 44% 30.37 in 10.0 mi West 4.6 mph - N/A   Clear
1:35 AM 32.0 °F 28.7 °F 12.2 °F 44% 30.37 in 10.0 mi West 3.5 mph - N/A   Clear
1:55 AM 30.2 °F 25.4 °F 12.2 °F 47% 30.37 in 10.0 mi West 4.6 mph - N/A   Clear
2:15 AM 30.2 °F 24.3 °F 12.2 °F 47% 30.35 in 10.0 mi SW 5.8 mph - N/A   Clear
2:35 AM 30.2 °F 22.6 °F 12.2 °F 47% 30.35 in 10.0 mi SW 8.1 mph - N/A   Clear
2:55 AM 30.2 °F 21.3 °F 14.0 °F 51% 30.33 in 10.0 mi SSW 10.4 mph - N/A   Clear
3:15 AM 32.0 °F 24.2 °F 15.8 °F 51% 30.33 in 10.0 mi SW 9.2 mph - N/A   Clear
3:35 AM 32.0 °F 27.5 °F 14.0 °F 48% 30.33 in 10.0 mi WSW 4.6 mph - N/A   Clear
3:55 AM 32.0 °F 27.5 °F 15.8 °F 51% 30.33 in 10.0 mi West 4.6 mph - N/A   Clear
4:15 AM 30.2 °F 23.4 °F 14.0 °F 51% 30.33 in 10.0 mi SW 6.9 mph - N/A   Clear
4:35 AM 32.0 °F 22.5 °F 15.8 °F 51% 30.31 in 10.0 mi SSW 12.7 mph - N/A   Clear
5:15 AM 33.8 °F 24.8 °F 17.6 °F 52% 30.29 in 10.0 mi SW 12.7 mph - N/A   Clear
5:35 AM 35.6 °F 27.1 °F 15.8 °F 44% 30.28 in 10.0 mi SSW 12.7 mph - N/A   Clear
5:55 AM 35.6 °F 27.5 °F 15.8 °F 44% 30.28 in 10.0 mi SSW 11.5 mph - N/A   Clear
6:15 AM 35.6 °F 26.6 °F 15.8 °F 44% 30.27 in 10.0 mi SW 13.8 mph - N/A   Clear
6:35 AM 35.6 °F 26.2 °F 15.8 °F 44% 30.27 in 10.0 mi SW 15.0 mph 19.6 mph N/A   Clear
6:55 AM 35.6 °F 26.6 °F 15.8 °F 44% 30.26 in 10.0 mi SW 13.8 mph - N/A   Clear
7:15 AM 35.6 °F 26.6 °F 15.8 °F 44% 30.26 in 10.0 mi SW 13.8 mph - N/A   Clear
7:35 AM 35.6 °F 27.1 °F 15.8 °F 44% 30.26 in 10.0 mi SW 12.7 mph - N/A   Clear
7:55 AM 35.6 °F 27.5 °F 14.0 °F 41% 30.25 in 10.0 mi SW 11.5 mph - N/A   Clear
8:15 AM 35.6 °F 26.6 °F 14.0 °F 41% 30.24 in 10.0 mi SW 13.8 mph - N/A   Clear
8:35 AM 37.4 °F 29.3 °F 14.0 °F 38% 30.23 in 10.0 mi SW 12.7 mph - N/A   Clear
8:55 AM 41.0 °F 33.9 °F 15.8 °F 36% 30.23 in 10.0 mi SW 12.7 mph 16.1 mph N/A   Clear
9:15 AM 42.8 °F 34.3 °F 15.8 °F 34% 30.22 in 10.0 mi SW 19.6 mph 23.0 mph N/A   Clear
9:35 AM 44.6 °F 35.5 °F 15.8 °F 31% 30.20 in 10.0 mi SW 25.3 mph 32.2 mph N/A   Clear
9:55 AM 48.2 °F - 17.6 °F 30% 30.20 in 10.0 mi WSW 24.2 mph 32.2 mph N/A   Clear
10:15 AM 50.0 °F - 17.6 °F 28% 30.19 in 10.0 mi SW 27.6 mph 32.2 mph N/A   Clear
10:35 AM 51.8 °F - 17.6 °F 26% 30.18 in 10.0 mi SW 28.8 mph 35.7 mph N/A   Clear
10:55 AM 53.6 °F - 17.6 °F 24% 30.17 in 10.0 mi SW 28.8 mph 35.7 mph N/A   Clear
11:15 AM 55.4 °F - 17.6 °F 23% 30.16 in 10.0 mi SW 27.6 mph 34.5 mph N/A   Clear
11:35 AM 57.2 °F - 17.6 °F 21% 30.15 in 10.0 mi SW 24.2 mph 32.2 mph N/A   Clear
11:55 AM 59.0 °F - 17.6 °F 20% 30.13 in 10.0 mi WSW 25.3 mph 31.1 mph N/A   Clear
12:15 PM 60.8 °F - 19.4 °F 20% 30.12 in 10.0 mi SW 23.0 mph 31.1 mph N/A   Clear
12:35 PM 60.8 °F - 19.4 °F 20% 30.11 in 10.0 mi SW 19.6 mph 27.6 mph N/A   Clear
12:55 PM 60.8 °F - 19.4 °F 20% 30.09 in 10.0 mi SW 19.6 mph 27.6 mph N/A   Clear
1:15 PM 62.6 °F - 19.4 °F 19% 30.07 in 10.0 mi SW 23.0 mph 29.9 mph N/A   Clear
1:35 PM 64.4 °F - 19.4 °F 18% 30.05 in 10.0 mi SW 19.6 mph 28.8 mph N/A   Clear
1:55 PM 64.4 °F - 19.4 °F 18% 30.04 in 10.0 mi SSW 21.9 mph 32.2 mph N/A   Clear
2:15 PM 64.4 °F - 19.4 °F 18% 30.02 in 10.0 mi SW 21.9 mph 29.9 mph N/A   Clear
2:35 PM 66.2 °F - 19.4 °F 17% 30.01 in 10.0 mi SW 21.9 mph 27.6 mph N/A   Clear
2:55 PM 68.0 °F - 21.2 °F 17% 30.00 in 10.0 mi SW 20.7 mph 24.2 mph N/A   Clear
3:15 PM 66.2 °F - 21.2 °F 18% 29.99 in 10.0 mi SW 21.9 mph 28.8 mph N/A   Clear
3:35 PM 68.0 °F - 21.2 °F 17% 29.99 in 10.0 mi SW 18.4 mph 26.5 mph N/A   Clear
3:55 PM 68.0 °F - 21.2 °F 17% 29.98 in 10.0 mi SW 20.7 mph 26.5 mph N/A   Clear
4:15 PM 68.0 °F - 21.2 °F 17% 29.96 in 10.0 mi SW 17.3 mph 26.5 mph N/A   Clear
4:35 PM 68.0 °F - 21.2 °F 17% 29.96 in 10.0 mi SW 18.4 mph 25.3 mph N/A   Clear
4:55 PM 66.2 °F - 21.2 °F 18% 29.95 in 10.0 mi SW 17.3 mph 23.0 mph N/A   Clear
5:15 PM 64.4 °F - 21.2 °F 19% 29.95 in 10.0 mi SSW 13.8 mph 18.4 mph N/A   Clear
5:35 PM 62.6 °F - 23.0 °F 22% 29.94 in 10.0 mi SSW 10.4 mph - N/A   Clear
5:55 PM 59.0 °F - 21.2 °F 23% 29.94 in 10.0 mi SSW 8.1 mph - N/A   Clear
6:15 PM 53.6 °F - 21.2 °F 28% 29.94 in 10.0 mi South 9.2 mph - N/A   Clear
6:35 PM 51.8 °F - 21.2 °F 30% 29.94 in 10.0 mi South 9.2 mph - N/A   Clear
6:55 PM 51.8 °F - 21.2 °F 30% 29.94 in 10.0 mi South 8.1 mph - N/A   Clear
7:15 PM 51.8 °F - 21.2 °F 30% 29.93 in 10.0 mi South 11.5 mph - N/A   Clear
7:35 PM 50.0 °F - 21.2 °F 32% 29.93 in 10.0 mi South 10.4 mph - N/A   Clear
7:55 PM 50.0 °F - 21.2 °F 32% 29.93 in 10.0 mi SSW 8.1 mph - N/A   Clear
8:15 PM 51.8 °F - 21.2 °F 30% 29.93 in 10.0 mi SW 9.2 mph - N/A   Clear
8:35 PM 50.0 °F - 21.2 °F 32% 29.93 in 10.0 mi WSW 4.6 mph - N/A   Clear
8:55 PM 44.6 °F 39.7 °F 21.2 °F 39% 29.93 in 10.0 mi WSW 9.2 mph - N/A   Clear
9:15 PM 44.6 °F 39.7 °F 21.2 °F 39% 29.92 in 10.0 mi SW 9.2 mph - N/A   Clear
9:35 PM 42.8 °F 38.0 °F 21.2 °F 42% 29.91 in 10.0 mi WSW 8.1 mph - N/A   Clear
9:55 PM 44.6 °F 41.4 °F 23.0 °F 43% 29.91 in 10.0 mi SW 5.8 mph - N/A   Clear
10:15 PM 41.0 °F 36.4 °F 21.2 °F 45% 29.91 in 10.0 mi West 6.9 mph - N/A   Clear
10:35 PM 42.8 °F 41.1 °F 21.2 °F 42% 29.92 in 10.0 mi WSW 3.5 mph - N/A   Clear
10:55 PM 41.0 °F 35.8 °F 21.2 °F 45% 29.91 in 10.0 mi WSW 8.1 mph - N/A   Clear
11:15 PM 41.0 °F 36.4 °F 23.0 °F 49% 29.91 in 10.0 mi South 6.9 mph - N/A   Clear
11:35 PM 41.0 °F 38.0 °F 23.0 °F 49% 29.91 in 10.0 mi South 4.6 mph - N/A   Clear
11:55 PM 39.2 °F 35.0 °F 23.0 °F 52% 29.90 in 10.0 mi South 5.8 mph - N/A   Clear